Location: Unspecified
(40.7945°N, 0.0000°E)
Time: 21:23:37
(UTC+00:00)

deb Explorer IX - Visible Passes

Search period start: 21 January 2021 00:00
Search period end: 31 January 2021 00:00
Orbit: 536 x 1104 km, 38.8° (Epoch: 21 January)

Date Brightness Start Highest point End Pass type
(mag) Time Alt. Az. Time Alt. Az. Time Alt. Az.
21 Jan ? 17:33:09 10° SSW 17:38:15 25° SSE 17:42:47 10° E visible
21 Jan ? 19:19:03 10° WSW 19:24:49 56° SSE 19:24:49 56° SSE visible
22 Jan ? 18:55:11 10° WSW 19:01:12 57° SSE 19:02:34 44° ESE visible
22 Jan ? 20:42:28 10° W 20:43:49 17° W 20:43:49 17° W visible
23 Jan ? 18:31:19 10° WSW 18:37:31 58° SSE 18:40:17 29° E visible
23 Jan ? 20:18:38 10° W 20:21:32 29° W 20:21:32 29° W visible
24 Jan ? 18:07:25 10° WSW 18:13:49 59° SSE 18:17:58 18° E visible
24 Jan ? 19:54:46 10° W 19:59:14 49° WSW 19:59:14 49° WSW visible
25 Jan ? 17:43:31 10° WSW 17:50:05 59° SSE 17:55:40 10° E visible
25 Jan ? 19:30:54 10° W 19:36:56 73° SSW 19:36:56 73° SSW visible
26 Jan ? 19:07:00 10° W 19:13:21 74° S 19:14:38 54° ESE visible
26 Jan ? 20:54:36 10° W 20:55:53 16° W 20:55:53 16° W visible
27 Jan ? 18:43:06 10° W 18:49:37 74° S 18:52:20 32° ESE visible
27 Jan ? 20:30:44 10° W 20:33:37 26° W 20:33:37 26° W visible
28 Jan ? 18:19:11 10° W 18:25:52 75° S 18:30:05 19° E visible
28 Jan ? 20:06:50 10° W 20:11:21 40° WSW 20:11:21 40° WSW visible
29 Jan ? 17:55:15 10° W 18:02:06 75° S 18:07:52 11° E visible
29 Jan ? 19:42:56 10° W 19:48:58 48° SSW 19:49:08 48° SSW visible
30 Jan ? 17:31:20 10° W 17:38:19 76° S 17:44:22 10° E visible
30 Jan ? 19:19:00 10° W 19:25:14 49° SSW 19:26:59 37° SSE visible
30 Jan ? 21:07:45 10° WSW 21:08:16 11° WSW 21:08:16 11° WSW visible
